DW1736 Weather Reports


time (UTC)temp
C
wind
direction
speed
KPH
gust
KPH
rain 1hr
cm
rain 24hr
cm
rain mn
cm
humidity
%
barometer
mb
20260504050527 7 0.0 0.0 0.00 0.00 0.00 81 1016.0
20260504045540 6 0.0 0.0 0.00 0.00 0.00 84 1015.9
20260504044539 6 0.0 0.0 0.00 0.00 0.00 86 1015.9
20260504043540 5 0.0 0.0 0.00 0.00 0.00 86 1015.9
20260504042540 6 0.0 0.0 0.00 0.00 0.00 85 1015.9
20260504041540 6 0.0 0.0 0.00 0.00 0.00 85 1015.9
20260504040526 6 0.0 0.0 0.00 0.00 0.00 84 1016.0
20260504035539 6 0.0 0.0 0.00 0.00 0.00 84 1016.0
20260504034538 6 0.0 0.0 0.00 0.00 0.00 84 1015.9
20260504033538 6 0.0 0.0 0.00 0.00 0.00 85 1015.7
20260504032525 6 0.0 0.0 0.00 0.00 0.00 84 1015.7
20260504031526 6 0.0 0.0 0.00 0.00 0.00 83 1015.8
20260504030538 6 0.0 0.0 0.00 0.00 0.00 82 1015.8
20260504025559 6 0.0 0.0 0.00 0.00 0.00 81 1015.7
20260504024539 7 0.0 0.0 0.00 0.00 0.00 81 1015.6
20260504023526 7 0.0 0.0 0.00 0.00 0.00 81 1015.7
20260504022538 7 0.0 0.0 0.00 0.00 0.00 80 1015.8
20260504021525 7 0.0 0.0 0.00 0.00 0.00 79 1015.7
20260504020538 7 0.0 0.0 0.00 0.00 0.00 77 1015.6
20260504015538 7 0.0 0.0 0.00 0.00 0.00 74 1015.6
20260504014538 8 0.0 0.0 0.00 0.00 0.00 72 1015.5
20260504013558 8 0.0 0.0 0.00 0.00 0.00 71 1015.5
20260504012525 8 0.0 0.0 0.00 0.00 0.00 69 1015.4
20260504011538 9 0.0 0.0 0.00 0.00 0.00 68 1015.3
20260504010525 9 0.0 0.0 0.00 0.00 0.00 66 1015.3
20260504005538 10 0.0 0.0 0.00 0.00 0.00 63 1015.3
20260504004538 10 0.0 0.0 0.00 0.00 0.00 61 1015.1
20260504003545 10 0.0 0.0 0.00 0.00 0.00 58 1015.0
20260504002538 11 0.0 0.0 0.00 0.00 0.00 55 1014.9
20260504001538 12 0.0 0.0 0.00 0.00 0.00 51 1014.7
20260504000525 12 0.0 0.0 0.00 0.00 0.00 48 1014.6
20260503235637 13 0.0 0.0 0.00 0.00 0.00 46 1014.5
20260503234558 13 0.0 0.0 0.00 0.00 0.00 41 1014.4
20260503233537 14 0.0 0.0 0.00 0.00 0.00 40 1014.4
20260503232525 15 0.0 0.0 0.00 0.00 0.00 37 1014.4
20260503231537 15 0.0 0.0 0.00 0.00 0.00 35 1014.3
20260503230537 16 0.0 0.0 0.00 0.00 0.00 31 1014.2
20260503225537 17 0.0 0.0 0.00 0.00 0.00 29 1014.2
20260503224617 17 0.0 0.0 0.00 0.00 0.00 30 1014.3
20260503223537 17 0.0 0.0 0.00 0.00 0.00 28 1014.3
20260503222537 17 0.0 3.2 0.00 0.00 0.00 29 1014.2
20260503221538 17 0.0 4.8 0.00 0.00 0.00 28 1014.3
20260503220537 17 0.0 4.8 0.00 0.00 0.00 28 1014.3
20260503215525 17 0.0 3.2 0.00 0.00 0.00 29 1014.3
20260503214537 17 0.0 6.4 0.00 0.00 0.00 28 1014.2
20260503213538 17 225 1.6 9.7 0.00 0.00 0.00 28 1014.2
20260503212525 17 248 1.6 6.4 0.00 0.00 0.00 27 1014.2
20260503211537 17 248 4.8 22.5 0.00 0.00 0.00 27 1014.3
20260503210527 17 0.0 6.4 0.00 0.00 0.00 29 1014.3
20260503205526 17 225 1.6 6.4 0.00 0.00 0.00 28 1014.2
20260503204619 17 0.0 4.8 0.00 0.00 0.00 28 1014.2
20260503203539 17 0.0 6.4 0.00 0.00 0.00 28 1014.1
20260503202539 17 0.0 3.2 0.00 0.00 0.00 31 1014.1
20260503201540 17 225 1.6 9.7 0.00 0.00 0.00 28 1014.2
20260503200526 17 0.0 4.8 0.00 0.00 0.00 29 1014.4
20260503195527 17 225 1.6 22.5 0.00 0.00 0.00 28 1014.6
20260503194539 17 270 3.2 16.1 0.00 0.00 0.00 31 1014.7
20260503193539 17 248 3.2 9.7 0.00 0.00 0.00 29 1014.7
20260503192539 16 248 3.2 11.3 0.00 0.00 0.00 29 1015.1
20260503191539 17 225 3.2 20.9 0.00 0.00 0.00 28 1015.2
20260503190539 17 0.0 0.0 0.00 0.00 0.00 37 1015.2
20260503185526 16 248 3.2 16.1 0.00 0.00 0.00 30 1015.5
20260503184539 16 225 1.6 8.0 0.00 0.00 0.00 33 1015.6
20260503183527 16 225 1.6 16.1 0.00 0.00 0.00 30 1015.5
20260503182539 16 225 1.6 12.9 0.00 0.00 0.00 34 1015.6
20260503181539 16 225 3.2 14.5 0.00 0.00 0.00 36 1015.7
20260503180539 16 0.0 8.0 0.00 0.00 0.00 38 1015.7
20260503175526 16 0.0 3.2 0.00 0.00 0.00 42 1015.7
20260503174526 15 0.0 1.6 0.00 0.00 0.00 39 1016.0
20260503173540 15 0.0 3.2 0.00 0.00 0.00 39 1016.1
20260503172539 15 0.0 9.7 0.00 0.00 0.00 37 1016.1
20260503171539 15 0.0 1.6 0.00 0.00 0.00 37 1016.2
20260503170539 14 225 3.2 19.3 0.00 0.00 0.00 38 1016.2
20260503150558 13 0.0 1.6 0.00 0.00 0.00 43 1016.8
20260503130538 11 0.0 9.7 0.00 0.00 0.00 55 1016.5
20260503110538 7 0.0 1.6 0.00 0.00 0.00 70 1015.7
20260503081524 10 0.0 0.0 0.00 0.00 0.00 58 1013.0
20260503080557 10 0.0 6.4 0.00 0.00 0.00 58 1012.9
20260503072544 10 0.0 0.0 0.00 0.00 0.00 62 1012.5
20260503071617 10 0.0 0.0 0.00 0.00 0.00 63 1012.4
20260503070524 10 0.0 0.0 0.00 0.00 0.00 63 1012.3